Simultaneous Nadir Overpasses (SNOs) Predictions

Prediction of SNOs between GOES-17 and AQUA Satellite Orbit:

Table of predicted SNOs for the next 14.0 days since TLE Epoch: 12/10/2022
Index Date Time (GOES-17) GOES-17 Lat,Lon AQUA Lat,Lon Distance(km) Time Diff (sec)
1 12/11/2022 10:36:20 0.01,-137.32 -0.75,-133.83 397.09 80
2 12/11/2022 22:57:31 -0.01,-137.31 -0.37,-138.97 188.31 80
3 12/13/2022 22:47:14 0.00,-137.30 0.33,-135.82 169.13 80
4 12/14/2022 11:08:17 0.00,-137.31 0.78,-140.91 410.64 80
5 12/16/2022 10:55:19 -0.01,-137.29 0.10,-137.76 53.43 80
6 12/18/2022 10:39:41 -0.01,-137.27 -0.59,-134.60 303.52 80
7 12/18/2022 23:03:33 0.00,-137.25 -0.50,-139.74 282.19 80
8 12/20/2022 22:50:33 -0.00,-137.22 0.11,-136.56 74.10 80
9 12/22/2022 22:37:34 -0.00,-137.17 0.81,-133.40 429.24 80
10 12/23/2022 10:58:37 0.01,-137.17 0.29,-138.50 151.17 80
